AAL1701 KLAX-KSFO

Flight info

Callsign AAL1701
Flight time 0h 54m
Altitude 36000
Route SUMMR2 STOKD SERFR SERFR4
Aircraft A320/M-SDE3FGHIRWY/LB1

Departure

Time 2026-05-06 22:56
Airport Los Angeles International Airport (KLAX)

Arrival

Time 2026-05-06 23:50
Airport San Francisco International Airport (KSFO)
Time Latitude Longitude Altitude Speed Heading
2026-05-06 22:37 33.94056 -118.40383 123 ft 0 kts 271°
2026-05-06 22:43 33.94056 -118.40382 123 ft 1 kts 271°
2026-05-06 22:43 33.94056 -118.40369 123 ft 0 kts 272°
2026-05-06 22:43 33.94057 -118.40353 123 ft 2 kts 250°
2026-05-06 22:43 33.94064 -118.40337 123 ft 2 kts 228°
2026-05-06 22:44 33.94076 -118.40327 123 ft 1 kts 204°
2026-05-06 22:44 33.94082 -118.40324 123 ft 0 kts 195°
2026-05-06 22:44 33.94076 -118.40324 123 ft 1 kts 176°
2026-05-06 22:44 33.94042 -118.40320 123 ft 6 kts 174°
2026-05-06 22:45 33.94014 -118.40316 123 ft 1 kts 174°
2026-05-06 22:45 33.94013 -118.40316 123 ft 0 kts 174°
2026-05-06 22:47 33.94011 -118.40316 122 ft 0 kts 174°
2026-05-06 22:47 33.93999 -118.40314 122 ft 2 kts 174°
2026-05-06 22:47 33.93970 -118.40311 122 ft 7 kts 174°
2026-05-06 22:48 33.93928 -118.40340 123 ft 8 kts 257°
2026-05-06 22:48 33.93921 -118.40411 123 ft 8 kts 263°
2026-05-06 22:48 33.93912 -118.40483 124 ft 8 kts 262°
2026-05-06 22:48 33.93900 -118.40589 125 ft 17 kts 263°
2026-05-06 22:49 33.93887 -118.40732 126 ft 16 kts 263°
2026-05-06 22:49 33.93872 -118.40869 127 ft 16 kts 263°
2026-05-06 22:49 33.93859 -118.41007 127 ft 16 kts 264°
2026-05-06 22:49 33.93845 -118.41147 126 ft 17 kts 263°
2026-05-06 22:50 33.93874 -118.41263 126 ft 15 kts 337°
2026-05-06 22:50 33.93988 -118.41283 125 ft 17 kts 353°
2026-05-06 22:50 33.94110 -118.41299 124 ft 18 kts 354°
2026-05-06 22:50 33.94239 -118.41319 124 ft 18 kts 352°
2026-05-06 22:51 33.94370 -118.41339 123 ft 19 kts 353°
2026-05-06 22:51 33.94506 -118.41360 123 ft 19 kts 352°
2026-05-06 22:51 33.94644 -118.41379 123 ft 20 kts 353°
2026-05-06 22:51 33.94761 -118.41392 123 ft 14 kts 14°
2026-05-06 22:52 33.94796 -118.41284 123 ft 15 kts 82°
2026-05-06 22:52 33.94808 -118.41156 124 ft 15 kts 83°
2026-05-06 22:52 33.94823 -118.41022 124 ft 16 kts 83°
2026-05-06 22:52 33.94837 -118.40881 124 ft 17 kts 84°
2026-05-06 22:53 33.94851 -118.40732 123 ft 18 kts 83°
2026-05-06 22:53 33.94868 -118.40573 122 ft 19 kts 82°
2026-05-06 22:53 33.94885 -118.40412 121 ft 18 kts 83°
2026-05-06 22:53 33.94900 -118.40255 120 ft 19 kts 84°
2026-05-06 22:54 33.94915 -118.40105 119 ft 15 kts 83°
2026-05-06 22:54 33.94927 -118.39986 118 ft 11 kts 79°
2026-05-06 22:54 33.94952 -118.39931 117 ft 4 kts 38°
2026-05-06 22:54 33.94989 -118.39919 117 ft 8 kts 352°
2026-05-06 22:55 33.95042 -118.39944 117 ft 7 kts 283°
2026-05-06 22:55 33.95023 -118.40134 119 ft 54 kts 263°
2026-05-06 22:55 33.94951 -118.40859 124 ft 118 kts 263°
2026-05-06 22:55 33.94832 -118.42020 302 ft 152 kts 262°
2026-05-06 22:56 33.94698 -118.43304 844 ft 159 kts 263°
2026-05-06 22:56 33.94556 -118.44641 1450 ft 166 kts 262°
2026-05-06 22:56 33.94407 -118.46027 2094 ft 170 kts 263°
2026-05-06 22:56 33.94291 -118.47455 2629 ft 178 kts 268°
2026-05-06 22:57 33.94248 -118.49019 2988 ft 194 kts 270°
2026-05-06 22:57 33.94207 -118.50703 3345 ft 211 kts 268°
2026-05-06 22:57 33.94087 -118.52579 3638 ft 236 kts 267°
2026-05-06 22:57 33.93933 -118.54633 4094 ft 254 kts 266°
2026-05-06 22:58 33.93763 -118.56821 4625 ft 270 kts 266°
2026-05-06 22:58 33.93583 -118.59084 5391 ft 276 kts 267°
2026-05-06 22:58 33.93401 -118.61386 6207 ft 280 kts 267°
2026-05-06 22:58 33.93218 -118.63711 7007 ft 285 kts 268°
2026-05-06 22:59 33.93029 -118.66116 7776 ft 291 kts 268°
2026-05-06 22:59 33.92842 -118.68557 8541 ft 296 kts 267°
2026-05-06 22:59 33.92654 -118.70997 9292 ft 301 kts 268°
2026-05-06 22:59 33.92457 -118.73526 10038 ft 306 kts 268°
2026-05-06 23:00 33.92259 -118.76077 10606 ft 316 kts 268°
2026-05-06 23:00 33.92051 -118.78756 11222 ft 326 kts 268°
2026-05-06 23:00 33.91840 -118.81479 11743 ft 329 kts 268°
2026-05-06 23:00 33.91736 -118.84253 11995 ft 331 kts 274°
2026-05-06 23:01 33.91791 -118.87024 12509 ft 336 kts 276°
2026-05-06 23:01 33.91880 -118.89812 13269 ft 336 kts 276°
2026-05-06 23:01 33.91971 -118.92604 13993 ft 338 kts 276°
2026-05-06 23:01 33.92060 -118.95461 14560 ft 342 kts 276°
2026-05-06 23:02 33.92146 -118.98325 15203 ft 345 kts 276°
2026-05-06 23:02 33.92453 -119.01161 15796 ft 343 kts 289°
2026-05-06 23:02 33.93306 -119.03808 16398 ft 340 kts 303°
2026-05-06 23:02 33.94512 -119.06233 16987 ft 340 kts 307°
2026-05-06 23:03 33.95786 -119.08622 17553 ft 343 kts 307°
2026-05-06 23:03 33.97075 -119.11049 18128 ft 346 kts 307°
2026-05-06 23:03 33.98373 -119.13526 18682 ft 350 kts 307°
2026-05-06 23:03 33.99647 -119.15973 19233 ft 352 kts 308°
2026-05-06 23:04 34.01160 -119.18316 19793 ft 349 kts 318°
2026-05-06 23:04 34.02919 -119.20278 20345 ft 346 kts 327°
2026-05-06 23:04 34.04845 -119.21989 20877 ft 347 kts 329°
2026-05-06 23:04 34.06838 -119.23686 21395 ft 349 kts 329°
2026-05-06 23:05 34.08818 -119.25367 21901 ft 352 kts 329°
2026-05-06 23:05 34.10811 -119.27065 22489 ft 351 kts 329°
2026-05-06 23:05 34.12831 -119.28793 23015 ft 353 kts 329°
2026-05-06 23:05 34.14814 -119.30495 23507 ft 355 kts 329°
2026-05-06 23:06 34.16826 -119.32225 23988 ft 357 kts 329°
2026-05-06 23:06 34.18858 -119.33975 24449 ft 359 kts 329°
2026-05-06 23:06 34.20889 -119.35728 24911 ft 362 kts 329°
2026-05-06 23:06 34.22927 -119.37487 25357 ft 364 kts 329°
2026-05-06 23:07 34.25012 -119.39286 25798 ft 366 kts 329°
2026-05-06 23:07 34.27072 -119.41066 26219 ft 369 kts 329°
2026-05-06 23:07 34.29182 -119.42891 26623 ft 371 kts 329°
2026-05-06 23:07 34.31270 -119.44698 27048 ft 373 kts 329°
2026-05-06 23:08 34.33393 -119.46538 27446 ft 376 kts 329°
2026-05-06 23:08 34.35508 -119.48370 27854 ft 378 kts 329°
2026-05-06 23:08 34.37660 -119.50235 28245 ft 380 kts 329°
2026-05-06 23:08 34.39769 -119.52147 28615 ft 384 kts 326°
2026-05-06 23:09 34.41844 -119.54265 28994 ft 388 kts 323°
2026-05-06 23:09 34.43797 -119.56510 29365 ft 392 kts 320°
2026-05-06 23:09 34.45712 -119.58845 29742 ft 394 kts 320°
2026-05-06 23:09 34.47624 -119.61200 30106 ft 395 kts 320°
2026-05-06 23:10 34.49559 -119.63585 30435 ft 397 kts 320°
2026-05-06 23:10 34.51516 -119.65997 30739 ft 400 kts 319°
2026-05-06 23:10 34.53448 -119.68379 31023 ft 402 kts 319°
2026-05-06 23:10 34.55419 -119.70808 31332 ft 404 kts 319°
2026-05-06 23:11 34.57395 -119.73247 31634 ft 406 kts 319°
2026-05-06 23:11 34.59392 -119.75714 31913 ft 409 kts 319°
2026-05-06 23:11 34.61380 -119.78169 32187 ft 411 kts 319°
2026-05-06 23:11 34.63370 -119.80630 32467 ft 413 kts 319°
2026-05-06 23:12 34.65409 -119.83154 32729 ft 415 kts 319°
2026-05-06 23:12 34.67433 -119.85658 32990 ft 417 kts 319°
2026-05-06 23:12 34.69457 -119.88165 33234 ft 419 kts 319°
2026-05-06 23:12 34.71502 -119.90700 33476 ft 421 kts 319°
2026-05-06 23:13 34.73546 -119.93236 33757 ft 422 kts 319°
2026-05-06 23:13 34.75581 -119.95766 34133 ft 421 kts 319°
2026-05-06 23:13 34.77624 -119.98308 34520 ft 420 kts 319°
2026-05-06 23:13 34.79672 -120.00857 34837 ft 420 kts 319°
2026-05-06 23:14 34.81708 -120.03391 35112 ft 421 kts 319°
2026-05-06 23:14 34.83743 -120.05924 35358 ft 422 kts 319°
2026-05-06 23:14 34.85795 -120.08482 35600 ft 423 kts 319°
2026-05-06 23:14 34.87835 -120.11029 35841 ft 425 kts 319°
2026-05-06 23:15 34.89903 -120.13610 36069 ft 426 kts 319°
2026-05-06 23:15 34.94056 -120.18800 36104 ft 427 kts 319°
2026-05-06 23:16 34.98187 -120.23972 36099 ft 427 kts 319°
2026-05-06 23:16 35.02321 -120.29160 36081 ft 427 kts 319°
2026-05-06 23:17 35.06449 -120.34346 36072 ft 426 kts 319°
2026-05-06 23:17 35.10687 -120.39419 36076 ft 425 kts 322°
2026-05-06 23:18 35.15051 -120.44297 36073 ft 425 kts 322°
2026-05-06 23:18 35.19434 -120.49197 36072 ft 425 kts 322°
2026-05-06 23:19 35.23780 -120.54073 36077 ft 425 kts 322°
2026-05-06 23:19 35.28130 -120.58964 36077 ft 425 kts 322°
2026-05-06 23:20 35.32474 -120.63854 36074 ft 425 kts 322°
2026-05-06 23:20 35.36830 -120.68770 36076 ft 425 kts 321°
2026-05-06 23:21 35.41172 -120.73677 36085 ft 425 kts 321°
2026-05-06 23:21 35.45512 -120.78587 36090 ft 425 kts 321°
2026-05-06 23:22 35.49956 -120.83283 36088 ft 422 kts 326°
2026-05-06 23:22 35.54656 -120.87658 36079 ft 422 kts 327°
2026-05-06 23:23 35.59346 -120.91999 36069 ft 422 kts 327°
2026-05-06 23:23 35.64032 -120.96350 36061 ft 422 kts 327°
2026-05-06 23:24 35.68686 -121.00680 36060 ft 422 kts 327°
2026-05-06 23:24 35.73365 -121.05042 36066 ft 422 kts 327°
2026-05-06 23:25 35.78062 -121.09427 35772 ft 422 kts 326°
2026-05-06 23:25 35.80376 -121.11591 35492 ft 419 kts 326°
2026-05-06 23:25 35.82704 -121.13769 35207 ft 416 kts 326°
2026-05-06 23:25 35.84998 -121.15919 34926 ft 414 kts 326°
2026-05-06 23:26 35.87297 -121.18073 34644 ft 414 kts 326°
2026-05-06 23:26 35.89582 -121.20215 34363 ft 415 kts 326°
2026-05-06 23:26 35.91864 -121.22356 34062 ft 416 kts 326°
2026-05-06 23:26 35.94181 -121.24532 33653 ft 417 kts 326°
2026-05-06 23:27 35.96470 -121.26683 33172 ft 417 kts 326°
2026-05-06 23:27 35.98748 -121.28827 32763 ft 412 kts 326°
2026-05-06 23:27 36.01035 -121.30982 32397 ft 409 kts 326°
2026-05-06 23:27 36.03267 -121.33086 32000 ft 406 kts 326°
2026-05-06 23:28 36.05523 -121.35208 31580 ft 403 kts 326°
2026-05-06 23:28 36.07790 -121.37173 31170 ft 399 kts 329°
2026-05-06 23:28 36.10109 -121.39009 30741 ft 396 kts 330°
2026-05-06 23:28 36.12437 -121.40823 30303 ft 392 kts 330°
2026-05-06 23:29 36.14742 -121.42615 29887 ft 389 kts 330°
2026-05-06 23:29 36.17007 -121.44379 29449 ft 386 kts 330°
2026-05-06 23:29 36.19284 -121.46156 29010 ft 382 kts 330°
2026-05-06 23:29 36.21507 -121.47893 28563 ft 380 kts 330°
2026-05-06 23:30 36.23741 -121.49640 28111 ft 377 kts 330°
2026-05-06 23:30 36.25941 -121.51363 27674 ft 373 kts 330°
2026-05-06 23:30 36.28118 -121.53066 27229 ft 370 kts 330°
2026-05-06 23:30 36.30296 -121.54772 26773 ft 368 kts 330°
2026-05-06 23:31 36.32436 -121.56453 26335 ft 364 kts 330°
2026-05-06 23:31 36.34561 -121.58122 25912 ft 361 kts 330°
2026-05-06 23:31 36.36653 -121.59766 25496 ft 358 kts 330°
2026-05-06 23:31 36.38753 -121.61416 25074 ft 354 kts 330°
2026-05-06 23:32 36.40828 -121.63048 24655 ft 351 kts 330°
2026-05-06 23:32 36.42864 -121.64650 24242 ft 348 kts 330°
2026-05-06 23:32 36.44912 -121.66264 23821 ft 346 kts 329°
2026-05-06 23:32 36.46932 -121.67854 23403 ft 344 kts 329°
2026-05-06 23:33 36.48945 -121.69441 22986 ft 342 kts 329°
2026-05-06 23:33 36.50936 -121.71011 22595 ft 339 kts 329°
2026-05-06 23:33 36.52932 -121.72586 22182 ft 338 kts 329°
2026-05-06 23:33 36.54913 -121.74150 21757 ft 337 kts 329°
2026-05-06 23:34 36.56866 -121.75696 21333 ft 337 kts 329°
2026-05-06 23:34 36.58830 -121.77251 20920 ft 336 kts 329°
2026-05-06 23:34 36.60809 -121.78818 20509 ft 335 kts 330°
2026-05-06 23:34 36.62757 -121.80362 20108 ft 334 kts 330°
2026-05-06 23:35 36.64726 -121.81923 19692 ft 333 kts 330°
2026-05-06 23:35 36.66663 -121.83459 19276 ft 333 kts 330°
2026-05-06 23:35 36.68612 -121.85007 18849 ft 333 kts 330°
2026-05-06 23:35 36.70565 -121.86557 18412 ft 333 kts 330°
2026-05-06 23:36 36.72518 -121.88089 17976 ft 333 kts 333°
2026-05-06 23:36 36.74613 -121.89343 17539 ft 330 kts 341°
2026-05-06 23:36 36.76789 -121.90177 17111 ft 328 kts 348°
2026-05-06 23:36 36.78999 -121.90812 16687 ft 328 kts 349°
2026-05-06 23:37 36.81235 -121.91421 16243 ft 328 kts 350°
2026-05-06 23:37 36.83460 -121.92027 15812 ft 327 kts 349°
2026-05-06 23:37 36.85671 -121.92636 15349 ft 328 kts 349°
2026-05-06 23:37 36.87902 -121.93256 14901 ft 328 kts 349°
2026-05-06 23:38 36.90132 -121.93879 14449 ft 328 kts 349°
2026-05-06 23:38 36.92352 -121.94499 14007 ft 328 kts 349°
2026-05-06 23:38 36.94564 -121.95127 13566 ft 328 kts 348°
2026-05-06 23:38 36.96776 -121.95909 13128 ft 328 kts 345°
2026-05-06 23:39 36.98930 -121.96741 12707 ft 327 kts 345°
2026-05-06 23:39 37.01110 -121.97594 12309 ft 325 kts 345°
2026-05-06 23:39 37.03256 -121.98434 11927 ft 322 kts 345°
2026-05-06 23:39 37.05381 -121.99267 11574 ft 319 kts 345°
2026-05-06 23:40 37.07492 -122.00093 11240 ft 316 kts 345°
2026-05-06 23:40 37.09592 -122.00915 10854 ft 314 kts 345°
2026-05-06 23:40 37.11669 -122.01727 10485 ft 312 kts 345°
2026-05-06 23:40 37.13726 -122.02533 10116 ft 309 kts 345°
2026-05-06 23:41 37.15762 -122.03330 9986 ft 299 kts 345°
2026-05-06 23:41 37.17729 -122.04101 9708 ft 294 kts 344°
2026-05-06 23:41 37.19653 -122.04855 9438 ft 290 kts 344°
2026-05-06 23:41 37.21572 -122.05607 9168 ft 285 kts 344°
2026-05-06 23:42 37.23443 -122.06340 8912 ft 281 kts 344°
2026-05-06 23:42 37.25309 -122.07072 8655 ft 277 kts 344°
2026-05-06 23:42 37.27126 -122.07786 8438 ft 271 kts 344°
2026-05-06 23:42 37.28914 -122.08488 8198 ft 267 kts 344°
2026-05-06 23:43 37.30673 -122.09182 7957 ft 263 kts 344°
2026-05-06 23:43 37.32400 -122.09862 7720 ft 259 kts 344°
2026-05-06 23:43 37.34105 -122.10535 7486 ft 255 kts 344°
2026-05-06 23:43 37.35794 -122.11202 7254 ft 251 kts 344°
2026-05-06 23:44 37.37436 -122.11846 7027 ft 247 kts 345°
2026-05-06 23:44 37.39074 -122.12423 6812 ft 243 kts 346°
2026-05-06 23:44 37.40702 -122.12980 6620 ft 239 kts 346°
2026-05-06 23:44 37.42294 -122.13523 6417 ft 235 kts 346°
2026-05-06 23:45 37.43865 -122.14060 6058 ft 230 kts 346°
2026-05-06 23:45 37.45394 -122.14581 5630 ft 227 kts 346°
2026-05-06 23:45 37.46923 -122.15087 5096 ft 229 kts 346°
2026-05-06 23:45 37.48447 -122.15585 4566 ft 230 kts 346°
2026-05-06 23:46 37.49990 -122.16092 4085 ft 228 kts 345°
2026-05-06 23:46 37.51508 -122.16592 3735 ft 221 kts 345°
2026-05-06 23:46 37.52979 -122.17084 3386 ft 215 kts 341°
2026-05-06 23:46 37.54221 -122.18031 3016 ft 211 kts 309°
2026-05-06 23:47 37.54900 -122.19628 2740 ft 204 kts 292°
2026-05-06 23:47 37.55418 -122.21285 2479 ft 204 kts 294°
2026-05-06 23:47 37.56005 -122.22914 2217 ft 206 kts 297°
2026-05-06 23:47 37.56661 -122.24528 1950 ft 208 kts 298°
2026-05-06 23:48 37.57321 -122.26093 1674 ft 200 kts 298°
2026-05-06 23:48 37.57952 -122.27588 1499 ft 185 kts 298°
2026-05-06 23:48 37.58542 -122.28997 1252 ft 176 kts 298°
2026-05-06 23:48 37.59087 -122.30300 1010 ft 164 kts 297°
2026-05-06 23:49 37.59604 -122.31536 773 ft 151 kts 297°
2026-05-06 23:49 37.60074 -122.32658 571 ft 139 kts 297°
2026-05-06 23:49 37.60502 -122.33691 358 ft 128 kts 296°
2026-05-06 23:49 37.60897 -122.34647 221 ft 121 kts 297°
2026-05-06 23:50 37.61292 -122.35570 80 ft 120 kts 297°
2026-05-06 23:50 37.61969 -122.37177 19 ft 66 kts 297°
2026-05-06 23:50 37.62123 -122.37553 23 ft 32 kts 293°
2026-05-06 23:51 37.62085 -122.37764 26 ft 23 kts 229°